| time (UTC) | temp F | wind direction | speed knots | gust knots | rain 1hr in | rain 24hr in | rain mn in | humidity % | barometer mb |
| 20260506033021 | 52 | 326 | 0.9 | 7.0 | 0.00 | 0.00 | 0.00 | 82 | 1012.6 |
| 20260506031520 | 52 | 309 | 0.0 | 4.3 | 0.00 | 0.00 | 0.00 | 82 | 1012.7 |
| 20260506030018 | 52 | 18 | 0.9 | 5.2 | 0.00 | 0.00 | 0.00 | 81 | 1012.5 |
| 20260506024515 | 52 | 23 | 1.7 | 6.1 | 0.00 | 0.00 | 0.00 | 81 | 1011.9 |
| 20260506023016 | 52 | 19 | 1.7 | 6.1 | 0.00 | 0.00 | 0.00 | 81 | 1011.5 |
| 20260506021510 | 52 | 15 | 0.9 | 6.1 | 0.00 | 0.00 | 0.00 | 81 | 1011.1 |
| 20260506020008 | 52 | 13 | 1.7 | 4.3 | 0.00 | 0.00 | 0.00 | 80 | 1010.7 |
| 20260506014505 | 52 | 325 | 0.9 | 4.3 | 0.00 | 0.00 | 0.00 | 80 | 1010.5 |
| 20260506013003 | 53 | 326 | 2.6 | 5.2 | 0.00 | 0.00 | 0.00 | 80 | 1010.2 |
| 20260506011617 | 53 | 359 | 1.7 | 6.1 | 0.00 | 0.00 | 0.00 | 82 | 1010.1 |
| 20260506010101 | 53 | 333 | 0.9 | 6.1 | 0.00 | 0.00 | 0.00 | 82 | 1010.1 |
| 20260506004558 | 53 | 323 | 1.7 | 9.6 | 0.00 | 0.00 | 0.00 | 82 | 1009.6 |
| 20260506003057 | 53 | 21 | 2.6 | 8.7 | 0.00 | 0.00 | 0.00 | 81 | 1009.7 |
| 20260506001556 | 54 | 343 | 1.7 | 7.8 | 0.00 | 0.00 | 0.00 | 82 | 1009.3 |
| 20260506000053 | 54 | 24 | 2.6 | 7.8 | 0.00 | 0.00 | 0.00 | 83 | 1009.7 |
| 20260505234551 | 54 | 77 | 2.6 | 7.0 | 0.00 | 0.00 | 0.00 | 82 | 1009.4 |
| 20260505233047 | 54 | 53 | 1.7 | 7.0 | 0.00 | 0.00 | 0.00 | 83 | 1009.1 |
| 20260505231602 | 55 | 354 | 1.7 | 7.0 | 0.00 | 0.00 | 0.00 | 83 | 1008.4 |
| 20260505230041 | 55 | 343 | 3.5 | 7.8 | 0.00 | 0.00 | 0.00 | 83 | 1008.1 |
| 20260505224538 | 56 | 330 | 1.7 | 7.8 | 0.00 | 0.00 | 0.00 | 83 | 1007.8 |
| 20260505223034 | 57 | 351 | 0.9 | 7.0 | 0.00 | 0.00 | 0.00 | 82 | 1007.5 |
| 20260505221534 | 57 | 347 | 0.9 | 6.1 | 0.00 | 0.00 | 0.00 | 82 | 1007.7 |
| 20260505220031 | 58 | 323 | 1.7 | 9.6 | 0.00 | 0.00 | 0.00 | 82 | 1007.5 |
| 20260505214534 | 58 | 32 | 0.9 | 7.8 | 0.00 | 0.00 | 0.00 | 82 | 1007.2 |
| 20260505213034 | 59 | 35 | 3.5 | 7.8 | 0.00 | 0.00 | 0.00 | 81 | 1007.3 |
| 20260505211521 | 60 | 349 | 2.6 | 7.8 | 0.00 | 0.00 | 0.00 | 81 | 1007.2 |
| 20260505210018 | 61 | 314 | 1.7 | 8.7 | 0.00 | 0.00 | 0.00 | 80 | 1007.2 |
| 20260505204515 | 62 | 96 | 1.7 | 7.8 | 0.00 | 0.00 | 0.00 | 80 | 1006.6 |
| 20260505203019 | 62 | 359 | 3.5 | 10.4 | 0.00 | 0.00 | 0.00 | 79 | 1006.2 |
| 20260505201521 | 63 | 359 | 4.3 | 9.6 | 0.00 | 0.00 | 0.00 | 78 | 1005.5 |
| 20260505200011 | 64 | 335 | 2.6 | 6.1 | 0.00 | 0.00 | 0.00 | 79 | 1006.6 |
| 20260505194504 | 64 | 50 | 1.7 | 9.6 | 0.00 | 0.00 | 0.00 | 78 | 1006.4 |
| 20260505193100 | 65 | 57 | 2.6 | 8.7 | 0.00 | 0.00 | 0.00 | 76 | 1005.5 |
| 20260505191610 | 73 | 330 | 3.5 | 7.8 | 0.00 | 0.00 | 0.00 | 66 | 1005.1 |
| 20260505190052 | 79 | 134 | 0.9 | 4.3 | 0.00 | 0.00 | 0.00 | 75 | 1004.8 |
| 20260505184549 | 78 | 140 | 0.0 | 2.6 | 0.00 | 0.00 | 0.00 | 76 | 1005.4 |
| 20260505183048 | 78 | 302 | 0.9 | 4.3 | 0.00 | 0.00 | 0.00 | 76 | 1005.3 |
| 20260505181548 | 78 | 243 | 1.7 | 4.3 | 0.00 | 0.00 | 0.00 | 75 | 1005.0 |
| 20260505180050 | 77 | 271 | 0.9 | 4.3 | 0.00 | 0.00 | 0.00 | 76 | 1004.9 |
| 20260505174546 | 77 | 263 | 0.9 | 5.2 | 0.00 | 0.00 | 0.00 | 76 | 1004.8 |
| 20260505173044 | 77 | 313 | 1.7 | 5.2 | 0.00 | 0.00 | 0.00 | 75 | 1004.7 |
| 20260505171546 | 78 | 257 | 1.7 | 7.8 | 0.00 | 0.00 | 0.00 | 75 | 1004.7 |
| 20260505170100 | 77 | 323 | 1.7 | 5.2 | 0.00 | 0.00 | 0.00 | 76 | 1004.8 |
| 20260505164541 | 76 | 245 | 0.9 | 3.5 | 0.00 | 0.00 | 0.00 | 77 | 1004.8 |
| 20260505163037 | 76 | 153 | 0.9 | 5.2 | 0.00 | 0.00 | 0.00 | 78 | 1004.6 |
| 20260505161535 | 76 | 150 | 0.9 | 2.6 | 0.00 | 0.00 | 0.00 | 78 | 1004.6 |
| 20260505153029 | 74 | 181 | 0.9 | 2.6 | 0.00 | 0.00 | 0.00 | 79 | 1004.4 |
| 20260505151525 | 73 | 127 | 0.0 | 2.6 | 0.00 | 0.00 | 0.00 | 81 | 1004.5 |
| 20260505124513 | 70 | 334 | 0.0 | 2.6 | 0.00 | 0.00 | 0.00 | 83 | 1004.5 |
| 20260505123012 | 70 | 293 | 0.0 | 3.5 | 0.00 | 0.00 | 0.00 | 83 | 1004.2 |
| 20260505121514 | 70 | 242 | 0.9 | 5.2 | 0.00 | 0.00 | 0.00 | 83 | 1003.7 |
| 20260505120010 | 70 | 357 | 0.9 | 3.5 | 0.00 | 0.00 | 0.00 | 83 | 1003.3 |
| 20260505114511 | 70 | 204 | 0.9 | 3.5 | 0.00 | 0.00 | 0.00 | 83 | 1003.0 |
| 20260505113016 | 70 | 238 | 0.9 | 3.5 | 0.00 | 0.00 | 0.00 | 83 | 1002.7 |
| 20260505111508 | 70 | 214 | 0.9 | 4.3 | 0.00 | 0.00 | 0.00 | 82 | 1002.8 |
| 20260505101505 | 70 | 69 | 0.9 | 5.2 | 0.00 | 0.00 | 0.00 | 81 | 1002.8 |
| 20260505100003 | 70 | 237 | 0.9 | 9.6 | 0.00 | 0.00 | 0.00 | 81 | 1002.7 |
| 20260505094501 | 70 | 260 | 0.9 | 9.6 | 0.00 | 0.00 | 0.00 | 80 | 1002.7 |
| 20260505093101 | 70 | 247 | 0.9 | 7.8 | 0.00 | 0.00 | 0.00 | 80 | 1002.5 |
| 20260505091600 | 70 | 258 | 2.6 | 11.3 | 0.00 | 0.00 | 0.00 | 79 | 1002.1 |
| 20260505090106 | 70 | 282 | 2.6 | 9.6 | 0.00 | 0.00 | 0.00 | 79 | 1002.0 |
| 20260505084556 | 71 | 285 | 4.3 | 13.0 | 0.00 | 0.00 | 0.00 | 78 | 1002.2 |
| 20260505083100 | 71 | 115 | 3.5 | 10.4 | 0.00 | 0.00 | 0.00 | 78 | 1002.2 |
| 20260505081550 | 71 | 247 | 3.5 | 14.8 | 0.00 | 0.00 | 0.00 | 77 | 1002.1 |
| 20260505080053 | 71 | 211 | 3.5 | 10.4 | 0.00 | 0.00 | 0.00 | 76 | 1002.4 |
| 20260505074544 | 71 | 243 | 3.5 | 9.6 | 0.00 | 0.00 | 0.00 | 76 | 1002.6 |
| 20260505073042 | 72 | 200 | 2.6 | 11.3 | 0.00 | 0.00 | 0.00 | 75 | 1002.9 |
| 20260505071641 | 72 | 209 | 4.3 | 10.4 | 0.00 | 0.00 | 0.00 | 75 | 1003.0 |
| 20260505070043 | 72 | 247 | 3.5 | 9.6 | 0.00 | 0.00 | 0.00 | 74 | 1003.2 |
| 20260505064535 | 72 | 134 | 3.5 | 11.3 | 0.00 | 0.00 | 0.00 | 74 | 1003.4 |
| 20260505063038 | 72 | 285 | 3.5 | 13.0 | 0.00 | 0.00 | 0.00 | 73 | 1003.7 |
| 20260505061534 | 72 | 240 | 3.5 | 10.4 | 0.00 | 0.00 | 0.00 | 73 | 1003.9 |
| 20260505060032 | 72 | 244 | 1.7 | 9.6 | 0.00 | 0.00 | 0.00 | 72 | 1004.2 |
| 20260505054536 | 72 | 222 | 2.6 | 10.4 | 0.00 | 0.00 | 0.00 | 72 | 1004.5 |
| 20260505053023 | 72 | 217 | 2.6 | 8.7 | 0.00 | 0.00 | 0.00 | 72 | 1004.4 |
| 20260505051521 | 72 | 156 | 2.6 | 8.7 | 0.00 | 0.00 | 0.00 | 72 | 1004.4 |